| time (UTC) | temp F | wind direction | speed MPH | gust MPH | rain 1hr in | rain 24hr in | rain mn in | humidity % | barometer mb |
| 20260506234505 | 52 | 360 | 0.0 | 5.0 | 0.00 | 0.00 | 0.00 | 46 | 1010.9 |
| 20260506233005 | 52 | 360 | 0.0 | 5.0 | 0.00 | 0.00 | 0.00 | 46 | 1010.9 |
| 20260506231505 | 52 | 360 | 0.0 | 5.0 | 0.00 | 0.00 | 0.00 | 46 | 1010.9 |
| 20260506230020 | 52 | 0 | 1.0 | 5.0 | 0.00 | 0.00 | 0.00 | 46 | 1010.5 |
| 20260506230006 | 52 | 360 | 0.0 | 4.0 | 0.00 | 0.00 | 0.00 | 46 | 1010.9 |
| 20260506224506 | 52 | 360 | 0.0 | 4.0 | 0.00 | 0.00 | 0.00 | 46 | 1010.9 |
| 20260506223006 | 52 | 360 | 0.0 | 4.0 | 0.00 | 0.00 | 0.00 | 46 | 1010.9 |
| 20260506221505 | 52 | 360 | 0.0 | 4.0 | 0.00 | 0.00 | 0.00 | 46 | 1010.9 |
| 20260506220020 | 52 | 0 | 1.0 | 4.0 | 0.00 | 0.00 | 0.00 | 46 | 1010.6 |
| 20260506220005 | 52 | 360 | 0.0 | 6.0 | 0.00 | 0.00 | 0.00 | 47 | 1010.8 |
| 20260506214505 | 52 | 360 | 0.0 | 6.0 | 0.00 | 0.00 | 0.00 | 47 | 1010.8 |
| 20260506213005 | 52 | 360 | 0.0 | 6.0 | 0.00 | 0.00 | 0.00 | 47 | 1010.8 |
| 20260506211505 | 52 | 360 | 0.0 | 6.0 | 0.00 | 0.00 | 0.00 | 47 | 1010.8 |
| 20260506210020 | 52 | 0 | 1.0 | 6.0 | 0.00 | 0.00 | 0.00 | 47 | 1010.5 |
| 20260506210005 | 52 | 360 | 0.0 | 8.0 | 0.00 | 0.00 | 0.00 | 46 | 1011.0 |
| 20260506204505 | 52 | 360 | 0.0 | 8.0 | 0.00 | 0.00 | 0.00 | 46 | 1011.0 |
| 20260506203006 | 52 | 360 | 0.0 | 8.0 | 0.00 | 0.00 | 0.00 | 46 | 1011.0 |
| 20260506201506 | 52 | 360 | 0.0 | 8.0 | 0.00 | 0.00 | 0.00 | 46 | 1011.0 |
| 20260506200100 | 52 | 0 | 2.0 | 8.0 | 0.00 | 0.00 | 0.00 | 46 | 1010.8 |
| 20260506200005 | 51 | 360 | 0.0 | 8.0 | 0.00 | 0.00 | 0.00 | 44 | 1011.3 |
| 20260506194505 | 51 | 360 | 0.0 | 8.0 | 0.00 | 0.00 | 0.00 | 44 | 1011.3 |
| 20260506193005 | 51 | 360 | 0.0 | 8.0 | 0.00 | 0.00 | 0.00 | 44 | 1011.3 |
| 20260506191505 | 51 | 360 | 0.0 | 8.0 | 0.00 | 0.00 | 0.00 | 44 | 1011.3 |
| 20260506190020 | 51 | 0 | 2.0 | 8.0 | 0.00 | 0.00 | 0.00 | 44 | 1011.1 |
| 20260506190006 | 50 | 360 | 0.0 | 8.0 | 0.00 | 0.00 | 0.00 | 47 | 1011.2 |
| 20260506184505 | 50 | 360 | 0.0 | 8.0 | 0.00 | 0.00 | 0.00 | 47 | 1011.2 |
| 20260506183005 | 50 | 360 | 0.0 | 8.0 | 0.00 | 0.00 | 0.00 | 47 | 1011.2 |
| 20260506181506 | 50 | 360 | 0.0 | 8.0 | 0.00 | 0.00 | 0.00 | 47 | 1011.2 |
| 20260506180159 | 50 | 0 | 2.0 | 8.0 | 0.00 | 0.00 | 0.00 | 47 | 1010.9 |
| 20260506180047 | 50 | 360 | 1.0 | 5.0 | 0.00 | 0.00 | 0.00 | 47 | 1011.2 |
| 20260506180006 | 49 | 360 | 0.0 | 8.0 | 0.00 | 0.00 | 0.00 | 55 | 1011.5 |
| 20260506174506 | 49 | 360 | 0.0 | 8.0 | 0.00 | 0.00 | 0.00 | 55 | 1011.5 |
| 20260506173005 | 49 | 360 | 0.0 | 8.0 | 0.00 | 0.00 | 0.00 | 55 | 1011.5 |
| 20260506171505 | 49 | 360 | 0.0 | 8.0 | 0.00 | 0.00 | 0.00 | 55 | 1011.5 |
| 20260506170019 | 49 | 0 | 2.0 | 8.0 | 0.00 | 0.00 | 0.00 | 55 | 1011.2 |
| 20260506170005 | 48 | 360 | 0.0 | 9.0 | 0.00 | 0.00 | 0.00 | 55 | 1011.7 |
| 20260506164505 | 48 | 360 | 0.0 | 9.0 | 0.00 | 0.00 | 0.00 | 55 | 1011.7 |
| 20260506163005 | 48 | 360 | 0.0 | 9.0 | 0.00 | 0.00 | 0.00 | 55 | 1011.7 |
| 20260506161505 | 48 | 360 | 0.0 | 9.0 | 0.00 | 0.00 | 0.00 | 55 | 1011.7 |
| 20260506160019 | 49 | 0 | 2.0 | 9.0 | 0.00 | 0.00 | 0.00 | 55 | 1011.4 |
| 20260506160005 | 47 | 360 | 0.0 | 10.0 | 0.00 | 0.00 | 0.00 | 59 | 1011.3 |
| 20260506154506 | 47 | 360 | 0.0 | 10.0 | 0.00 | 0.00 | 0.00 | 59 | 1011.3 |
| 20260506153006 | 47 | 360 | 0.0 | 10.0 | 0.00 | 0.00 | 0.00 | 59 | 1011.3 |
| 20260506151506 | 47 | 360 | 0.0 | 10.0 | 0.00 | 0.00 | 0.00 | 59 | 1011.3 |
| 20260506150019 | 47 | 0 | 2.0 | 10.0 | 0.00 | 0.01 | 0.00 | 59 | 1011.0 |
| 20260506150005 | 46 | 360 | 0.0 | 8.0 | 0.00 | 0.00 | 0.00 | 67 | 1010.4 |
| 20260506144505 | 46 | 360 | 0.0 | 8.0 | 0.00 | 0.00 | 0.00 | 67 | 1010.4 |
| 20260506143005 | 46 | 360 | 0.0 | 8.0 | 0.00 | 0.00 | 0.00 | 67 | 1010.4 |
| 20260506141505 | 46 | 360 | 0.0 | 8.0 | 0.00 | 0.00 | 0.00 | 67 | 1010.4 |
| 20260506140019 | 47 | 0 | 2.0 | 8.0 | 0.00 | 0.01 | 0.00 | 67 | 1010.1 |
| 20260506140005 | 44 | 360 | 0.0 | 5.0 | 0.00 | 0.00 | 0.00 | 63 | 1009.9 |
| 20260506134505 | 44 | 360 | 0.0 | 5.0 | 0.00 | 0.00 | 0.00 | 63 | 1009.9 |
| 20260506133006 | 44 | 360 | 0.0 | 5.0 | 0.00 | 0.00 | 0.00 | 63 | 1009.9 |
| 20260506131506 | 44 | 360 | 0.0 | 5.0 | 0.00 | 0.00 | 0.00 | 63 | 1009.9 |
| 20260506130039 | 45 | 0 | 1.0 | 5.0 | 0.00 | 0.01 | 0.00 | 63 | 1009.5 |
| 20260506130006 | 41 | 0.0 | 3.0 | 0.00 | 0.00 | 0.00 | 69 | 1009.1 | |
| 20260506124505 | 41 | 0.0 | 3.0 | 0.00 | 0.00 | 0.00 | 69 | 1009.1 | |
| 20260506123005 | 41 | 0.0 | 3.0 | 0.00 | 0.00 | 0.00 | 69 | 1009.1 | |
| 20260506121505 | 41 | 0.0 | 3.0 | 0.00 | 0.00 | 0.00 | 69 | 1009.1 | |
| 20260506120019 | 41 | 0.0 | 3.0 | 0.00 | 0.01 | 0.00 | 69 | 1008.7 | |
| 20260506120005 | 42 | 0.0 | 1.0 | 0.00 | 0.00 | 0.00 | 74 | 1008.7 | |
| 20260506114505 | 42 | 0.0 | 1.0 | 0.00 | 0.00 | 0.00 | 74 | 1008.7 | |
| 20260506113005 | 42 | 0.0 | 1.0 | 0.00 | 0.00 | 0.00 | 74 | 1008.7 | |
| 20260506111506 | 42 | 0.0 | 1.0 | 0.00 | 0.00 | 0.00 | 74 | 1008.7 | |
| 20260506110036 | 42 | 0.0 | 1.0 | 0.00 | 0.01 | 0.00 | 74 | 1008.3 | |
| 20260506110006 | 45 | 0.0 | 3.0 | 0.00 | 0.00 | 0.00 | 65 | 1008.1 | |
| 20260506104506 | 45 | 0.0 | 3.0 | 0.00 | 0.00 | 0.00 | 65 | 1008.1 | |
| 20260506103005 | 45 | 0.0 | 3.0 | 0.00 | 0.00 | 0.00 | 65 | 1008.1 | |
| 20260506101505 | 45 | 0.0 | 3.0 | 0.00 | 0.00 | 0.00 | 65 | 1008.1 | |
| 20260506100019 | 45 | 0.0 | 3.0 | 0.00 | 0.01 | 0.00 | 65 | 1007.9 | |
| 20260506100005 | 46 | 0.0 | 3.0 | 0.00 | 0.00 | 0.00 | 61 | 1007.4 | |
| 20260506094505 | 46 | 0.0 | 3.0 | 0.00 | 0.00 | 0.00 | 61 | 1007.4 | |
| 20260506093005 | 46 | 0.0 | 3.0 | 0.00 | 0.00 | 0.00 | 61 | 1007.4 | |
| 20260506091505 | 46 | 0.0 | 3.0 | 0.00 | 0.00 | 0.00 | 61 | 1007.4 | |
| 20260506090020 | 46 | 0.0 | 3.0 | 0.00 | 0.01 | 0.00 | 61 | 1007.2 | |
| 20260506090005 | 46 | 0.0 | 3.0 | 0.00 | 0.00 | 0.00 | 62 | 1007.3 | |
| 20260506084506 | 46 | 0.0 | 3.0 | 0.00 | 0.00 | 0.00 | 62 | 1007.3 | |
| 20260506083006 | 46 | 0.0 | 3.0 | 0.00 | 0.00 | 0.00 | 62 | 1007.3 | |
| 20260506081505 | 46 | 0.0 | 3.0 | 0.00 | 0.00 | 0.00 | 62 | 1007.3 | |
| 20260506073005 | 47 | 0.0 | 2.0 | 0.00 | 0.00 | 0.00 | 62 | 1007.1 | |
| 20260506071505 | 47 | 0.0 | 2.0 | 0.00 | 0.00 | 0.00 | 62 | 1007.1 | |
| 20260506061506 | 47 | 0.0 | 3.0 | 0.00 | 0.00 | 0.00 | 61 | 1007.5 | |
| 20260506044505 | 48 | 0.0 | 2.0 | 0.00 | 0.00 | 0.00 | 60 | 1007.0 | |
| 20260506043005 | 48 | 0.0 | 2.0 | 0.00 | 0.00 | 0.00 | 60 | 1007.0 | |
| 20260506041505 | 48 | 0.0 | 2.0 | 0.00 | 0.00 | 0.00 | 60 | 1007.0 | |
| 20260506040019 | 48 | 0.0 | 2.0 | 0.00 | 0.06 | 0.06 | 60 | 1006.8 | |
| 20260506040006 | 49 | 0.0 | 3.0 | 0.00 | 0.00 | 0.00 | 57 | 1007.0 | |
| 20260506034506 | 49 | 0.0 | 3.0 | 0.00 | 0.00 | 0.00 | 57 | 1007.0 | |
| 20260506033006 | 49 | 0.0 | 3.0 | 0.00 | 0.00 | 0.00 | 57 | 1007.0 | |
| 20260506031505 | 49 | 0.0 | 3.0 | 0.00 | 0.00 | 0.00 | 57 | 1007.0 | |
| 20260506030019 | 49 | 0.0 | 3.0 | 0.00 | 0.06 | 0.06 | 57 | 1006.9 | |
| 20260506030005 | 50 | 0.0 | 2.0 | 0.00 | 0.00 | 0.00 | 54 | 1006.7 | |
| 20260506024505 | 50 | 0.0 | 2.0 | 0.00 | 0.00 | 0.00 | 54 | 1006.7 | |
| 20260506023005 | 50 | 0.0 | 2.0 | 0.00 | 0.00 | 0.00 | 54 | 1006.7 | |
| 20260506021505 | 50 | 0.0 | 2.0 | 0.00 | 0.00 | 0.00 | 54 | 1006.7 | |
| 20260506020019 | 50 | 0.0 | 2.0 | 0.00 | 0.06 | 0.06 | 54 | 1006.7 | |
| 20260506020005 | 50 | 360 | 0.0 | 4.0 | 0.00 | 0.00 | 0.00 | 50 | 1006.1 |
| 20260506014506 | 50 | 360 | 0.0 | 4.0 | 0.00 | 0.00 | 0.00 | 50 | 1006.1 |
| 20260506013006 | 50 | 360 | 0.0 | 4.0 | 0.00 | 0.00 | 0.00 | 50 | 1006.1 |
| 20260506011505 | 50 | 360 | 0.0 | 4.0 | 0.00 | 0.00 | 0.00 | 50 | 1006.1 |
| 20260506010019 | 51 | 0 | 1.0 | 4.0 | 0.00 | 0.06 | 0.06 | 50 | 1006.2 |
| 20260506010005 | 52 | 360 | 0.0 | 5.0 | 0.00 | 0.00 | 0.00 | 47 | 1006.2 |
| 20260506004505 | 52 | 360 | 0.0 | 5.0 | 0.00 | 0.00 | 0.00 | 47 | 1006.2 |
| 20260506003005 | 52 | 360 | 0.0 | 5.0 | 0.00 | 0.00 | 0.00 | 47 | 1006.2 |
| 20260506001505 | 52 | 360 | 0.0 | 5.0 | 0.00 | 0.00 | 0.00 | 47 | 1006.2 |
| 20260506000018 | 52 | 0 | 2.0 | 5.0 | 0.00 | 0.06 | 0.06 | 47 | 1006.3 |
| 20260506000005 | 53 | 360 | 0.0 | 5.0 | 0.00 | 0.00 | 0.00 | 44 | 1005.5 |